QPF
0.02 0.04 0.04 0.03 0.03 0.03 0.03 0.03 0.03 0.03 0.02 0.02 0.01 0.01 0.01 0.01 0.01 0.01 0.02 0.01 0.01 0.02 0.03 0.03 0.02 0.01 0.01 0.01 0.01 0.01 0.01 0.01 0.01 0.01 0.01 0.01 0.01 0.01 0.01 0.01 0.01 0.01 0.01
0.01 0.02 0.04 0.03 0.03 0.03 0.03 0.03 0.03 0.03 0.02 0.02 0.01 0.01 0.01 0.01 0.01 0.01 0.02 0.02 0.02 0.02 0.03 0.03 0.02 0.02 0.01 0.01 0.01 0.01 0.01 0.01 0.00 0.00 0.00 0.01 0.01 0.01 0.01 0.01 0.00 0.01 0.01
0.01 0.02 0.02 0.03 0.03 0.03 0.03 0.03 0.02 0.03 0.02 0.02 0.01 0.01 0.01 0.01 0.01 0.02 0.02 0.02 0.02 0.02 0.03 0.03 0.02 0.01 0.01 0.01 0.00 0.00 0.01 0.01 0.00 0.00 0.00 0.00 0.01 0.01 0.01 0.01 0.01 0.01 0.01
0.01 0.01 0.01 0.01 0.02 0.03 0.03 0.03 0.03 0.02 0.02 0.02 0.02 0.02 0.01 0.01 0.01 0.02 0.02 0.01 0.02 0.02 0.02 0.02 0.02 0.01 0.01 0.01 0.00 0.00 0.00 0.00 0.00 0.00 0.00 0.00 0.01 0.01 0.01 0.01 0.00 0.01 0.01
0.00 0.01 0.01 0.01 0.02 0.02 0.02 0.02 0.02 0.02 0.02 0.02 0.02 0.02 0.02 0.02 0.02 0.03 0.02 0.02 0.01 0.01 0.02 0.02 0.01 0.01 0.01 0.01 0.01 0.01 0.00 0.00 0.00 0.00 0.00 0.00 0.01 0.02 0.01 0.01 0.01 0.01 0.01
0.00 0.01 0.01 0.01 0.02 0.02 0.02 0.02 0.02 0.01 0.02 0.02 0.02 0.02 0.02 0.03 0.03 0.02 0.02 0.02 0.02 0.02 0.02 0.01 0.01 0.01 0.01 0.01 0.01 0.01 0.00 0.00 0.00 0.00 0.00 0.00 0.01 0.01 0.01 0.01 0.01 0.01 0.00
0.01 0.01 0.01 0.02 0.03 0.03 0.02 0.03 0.03 0.03 0.02 0.02 0.01 0.01 0.02 0.03 0.03 0.03 0.03 0.03 0.02 0.02 0.01 0.01 0.01 0.01 0.01 0.01 0.01 0.01 0.00 0.01 0.01 0.00 0.00 0.00 0.00 0.01 0.01 0.01 0.01 0.00 0.00
0.01 0.01 0.02 0.03 0.03 0.03 0.03 0.03 0.03 0.04 0.03 0.01 0.01 0.01 0.02 0.03 0.02 0.02 0.02 0.03 0.02 0.01 0.01 0.01 0.01 0.01 0.01 0.01 0.01 0.01 0.00 0.00 0.00 0.00 0.00 0.00 0.00 0.00 0.00 0.01 0.01 0.01 0.01
0.01 0.01 0.02 0.03 0.03 0.04 0.04 0.04 0.03 0.03 0.03 0.02 0.01 0.02 0.03 0.03 0.02 0.02 0.01 0.02 0.01 0.01 0.01 0.00 0.01 0.01 0.01 0.01 0.01 0.01 0.00 0.00 0.00 0.00 0.00 0.00 0.00 0.00 0.00 0.01 0.01 0.01 0.01
0.01 0.02 0.03 0.04 0.03 0.03 0.03 0.02 0.02 0.02 0.01 0.01 0.01 0.02 0.01 0.02 0.01 0.01 0.01 0.01 0.01 0.01 0.01 0.01 0.00 0.00 0.00 0.00 0.00 0.00 0.00 0.00 0.00 0.01 0.01 0.01 0.00 0.01 0.01 0.01 0.02 0.02 0.02
0.03 0.04 0.05 0.05 0.04 0.03 0.02 0.02 0.02 0.02 0.01 0.01 0.01 0.01 0.01 0.01 0.01 0.01 0.01 0.01 0.01 0.01 0.01 0.01 0.00 0.00 0.00 0.00 0.00 0.00 0.00 0.00 0.00 0.00 0.00 0.00 0.01 0.01 0.02 0.02 0.02 0.02 0.02
0.03 0.04 0.04 0.04 0.04 0.04 0.03 0.02 0.03 0.02 0.02 0.01 0.01 0.01 0.01 0.01 0.01 0.00 0.01 0.01 0.01 0.00 0.00 0.00 0.00 0.00 0.00 0.00 0.00 0.00 0.00 0.00 0.00 0.00 0.00 0.00 0.00 0.02 0.02 0.02 0.02 0.02 0.02
0.03 0.03 0.04 0.03 0.03 0.03 0.03 0.03 0.03 0.02 0.02 0.02 0.02 0.01 0.01 0.01 0.01 0.01 0.01 0.01 0.01 0.01 0.00 0.00 0.00 0.00 0.00 0.00 0.00 0.00 0.00 0.00 0.00 0.00 0.00 0.00 0.00 0.01 0.02 0.01 0.01 0.01 0.02
0.03 0.04 0.04 0.04 0.04 0.04 0.03 0.03 0.03 0.03 0.02 0.02 0.01 0.01 0.01 0.01 0.01 0.01 0.01 0.01 0.01 0.01 0.01 0.01 0.01 0.00 0.00 0.00 0.00 0.00 0.00 0.00 0.00 0.00 0.00 0.00 0.00 0.01 0.01 0.01 0.01 0.02 0.02
0.04 0.04 0.05 0.06 0.07 0.06 0.05 0.04 0.04 0.04 0.04 0.03 0.02 0.02 0.02 0.01 0.01 0.01 0.01 0.00 0.00 0.01 0.01 0.01 0.01 0.01 0.01 0.00 0.00 0.00 0.00 0.00 0.00 0.00 0.00 0.00 0.00 0.00 0.01 0.01 0.01 0.01 0.01
0.05 0.05 0.05 0.06 0.08 0.08 0.08 0.06 0.06 0.06 0.06 0.06 0.05 0.05 0.05 0.03 0.02 0.01 0.01 0.00 0.00 0.00 0.01 0.01 0.01 0.01 0.01 0.01 0.00 0.00 0.00 0.00 0.00 0.00 0.00 0.00 0.00 0.00 0.00 0.01 0.01 0.02 0.01
0.05 0.07 0.07 0.08 0.09 0.10 0.11 0.08 0.05 0.06 0.07 0.08 0.09 0.09 0.08 0.06 0.03 0.02 0.02 0.02 0.02 0.02 0.01 0.01 0.00 0.00 0.00 0.00 0.00 0.01 0.00 0.00 0.00 0.00 0.00 0.00 0.00 0.00 0.00 0.00 0.01 0.02 0.02
0.06 0.07 0.08 0.10 0.10 0.10 0.11 0.11 0.11 0.09 0.10 0.08 0.06 0.06 0.06 0.05 0.03 0.03 0.03 0.03 0.04 0.04 0.04 0.02 0.01 0.01 0.01 0.01 0.01 0.00 0.00 0.00 0.00 0.00 0.00 0.00 0.00 0.00 0.00 0.00 0.00 0.01 0.01
0.06 0.06 0.06 0.08 0.10 0.11 0.10 0.11 0.12 0.11 0.09 0.06 0.05 0.05 0.05 0.05 0.04 0.03 0.03 0.02 0.02 0.02 0.03 0.04 0.03 0.02 0.01 0.01 0.01 0.01 0.01 0.00 0.00 0.00 0.00 0.00 0.00 0.00 0.00 0.00 0.00 0.00 0.00
0.06 0.06 0.06 0.06 0.08 0.11 0.12 0.11 0.11 0.10 0.09 0.06 0.06 0.07 0.08 0.07 0.06 0.05 0.05 0.03 0.02 0.01 0.01 0.02 0.04 0.04 0.03 0.02 0.01 0.01 0.00 0.00 0.00 0.00 0.00 0.00 0.00 0.00 0.00 0.00 0.00 0.00 0.00
0.05 0.05 0.05 0.05 0.06 0.07 0.09 0.09 0.09 0.08 0.07 0.06 0.05 0.07 0.10 0.12 0.12 0.10 0.08 0.07 0.05 0.03 0.02 0.01 0.02 0.03 0.03 0.02 0.02 0.01 0.01 0.01 0.01 0.00 0.00 0.00 0.00 0.00 0.00 0.00 0.00 0.00 0.00
0.05 0.04 0.05 0.05 0.05 0.05 0.05 0.05 0.07 0.08 0.07 0.06 0.05 0.05 0.06 0.08 0.10 0.10 0.08 0.07 0.07 0.06 0.04 0.02 0.02 0.01 0.01 0.01 0.02 0.02 0.01 0.01 0.01 0.00 0.00 0.00 0.00 0.00 0.00 0.00 0.00 0.00 0.00
0.06 0.04 0.04 0.05 0.05 0.05 0.05 0.06 0.06 0.08 0.07 0.04 0.03 0.04 0.06 0.06 0.06 0.07 0.07 0.07 0.07 0.06 0.05 0.05 0.03 0.02 0.01 0.01 0.01 0.02 0.02 0.01 0.00 0.00 0.00 0.00 0.00 0.00 0.00 0.00 0.00 0.00 0.00
0.06 0.06 0.06 0.06 0.06 0.06 0.06 0.06 0.07 0.06 0.06 0.04 0.04 0.05 0.06 0.06 0.06 0.05 0.05 0.05 0.06 0.06 0.04 0.03 0.03 0.02 0.02 0.02 0.02 0.02 0.02 0.01 0.01 0.01 0.00 0.00 0.00 0.00 0.00 0.00 0.00 0.00 0.00
0.06 0.06 0.07 0.06 0.07 0.07 0.07 0.07 0.08 0.08 0.07 0.06 0.05 0.07 0.08 0.06 0.04 0.04 0.04 0.04 0.05 0.07 0.06 0.05 0.03 0.02 0.01 0.02 0.02 0.02 0.02 0.02 0.02 0.01 0.01 0.00 0.00 0.00 0.00 0.00 0.00 0.00 0.00
0.04 0.04 0.05 0.06 0.05 0.07 0.08 0.07 0.07 0.08 0.07 0.06 0.05 0.05 0.06 0.05 0.04 0.03 0.03 0.03 0.03 0.05 0.06 0.06 0.04 0.03 0.02 0.02 0.02 0.03 0.03 0.03 0.02 0.01 0.01 0.00 0.00 0.00 0.00 0.00 0.00 0.00 0.00
MSLP
1007.07 1007.26 1007.68 1008.25 1008.90 1009.55 1010.13 1010.60 1010.97 1011.25 1011.50 1011.77 1012.08 1012.46 1012.89 1013.33 1013.75 1014.12 1014.40 1014.59 1014.72 1014.81 1014.88 1014.96 1015.06 1015.17 1015.28 1015.36 1015.41 1015.42 1015.40 1015.36 1015.33 1015.33 1015.38 1015.47 1015.59 1015.73 1015.84 1015.93 1015.98 1015.99 1015.99
1006.39 1006.69 1007.21 1007.90 1008.64 1009.35 1009.98 1010.48 1010.87 1011.16 1011.42 1011.70 1012.03 1012.42 1012.86 1013.32 1013.75 1014.13 1014.42 1014.62 1014.77 1014.88 1014.98 1015.08 1015.21 1015.33 1015.44 1015.52 1015.55 1015.53 1015.48 1015.43 1015.40 1015.42 1015.50 1015.63 1015.81 1015.99 1016.16 1016.29 1016.37 1016.40 1016.40
1005.68 1006.09 1006.72 1007.51 1008.34 1009.14 1009.82 1010.36 1010.78 1011.09 1011.37 1011.66 1012.00 1012.39 1012.83 1013.28 1013.70 1014.06 1014.35 1014.56 1014.73 1014.86 1015.00 1015.14 1015.29 1015.44 1015.56 1015.64 1015.66 1015.63 1015.56 1015.50 1015.48 1015.51 1015.62 1015.79 1016.01 1016.24 1016.45 1016.61 1016.72 1016.78 1016.79
1005.06 1005.56 1006.29 1007.17 1008.08 1008.93 1009.66 1010.25 1010.69 1011.04 1011.34 1011.65 1011.99 1012.38 1012.81 1013.23 1013.63 1013.97 1014.25 1014.46 1014.64 1014.81 1014.98 1015.17 1015.36 1015.54 1015.67 1015.76 1015.77 1015.74 1015.67 1015.61 1015.59 1015.65 1015.78 1015.98 1016.22 1016.48 1016.72 1016.91 1017.05 1017.13 1017.17
1004.61 1005.19 1006.00 1006.94 1007.90 1008.78 1009.54 1010.15 1010.62 1010.99 1011.32 1011.65 1012.01 1012.40 1012.81 1013.22 1013.59 1013.91 1014.17 1014.38 1014.58 1014.77 1014.98 1015.21 1015.44 1015.65 1015.81 1015.90 1015.93 1015.90 1015.84 1015.79 1015.79 1015.85 1016.00 1016.22 1016.48 1016.75 1017.00 1017.21 1017.37 1017.47 1017.53
1004.41 1005.05 1005.90 1006.86 1007.83 1008.71 1009.46 1010.07 1010.56 1010.95 1011.31 1011.67 1012.05 1012.46 1012.87 1013.26 1013.61 1013.91 1014.17 1014.39 1014.60 1014.82 1015.06 1015.32 1015.58 1015.81 1015.99 1016.10 1016.13 1016.12 1016.08 1016.04 1016.06 1016.14 1016.30 1016.52 1016.78 1017.05 1017.31 1017.52 1017.69 1017.81 1017.90
1004.49 1005.16 1006.01 1006.95 1007.87 1008.71 1009.43 1010.02 1010.50 1010.92 1011.31 1011.70 1012.12 1012.55 1012.97 1013.37 1013.72 1014.02 1014.27 1014.50 1014.72 1014.96 1015.23 1015.51 1015.78 1016.02 1016.21 1016.33 1016.38 1016.38 1016.36 1016.35 1016.39 1016.49 1016.66 1016.88 1017.14 1017.40 1017.64 1017.86 1018.03 1018.17 1018.28
1004.80 1005.47 1006.28 1007.15 1007.99 1008.75 1009.40 1009.95 1010.43 1010.86 1011.29 1011.73 1012.19 1012.66 1013.11 1013.53 1013.89 1014.20 1014.47 1014.71 1014.95 1015.21 1015.48 1015.77 1016.04 1016.28 1016.47 1016.59 1016.64 1016.66 1016.66 1016.68 1016.74 1016.87 1017.05 1017.27 1017.52 1017.77 1018.01 1018.21 1018.39 1018.54 1018.68
1005.24 1005.88 1006.62 1007.39 1008.12 1008.78 1009.35 1009.85 1010.31 1010.76 1011.23 1011.73 1012.24 1012.76 1013.25 1013.70 1014.09 1014.42 1014.71 1014.97 1015.24 1015.51 1015.79 1016.07 1016.33 1016.55 1016.72 1016.83 1016.89 1016.91 1016.94 1016.99 1017.08 1017.22 1017.42 1017.65 1017.90 1018.14 1018.37 1018.57 1018.75 1018.91 1019.07
1005.69 1006.27 1006.92 1007.57 1008.18 1008.73 1009.22 1009.68 1010.13 1010.61 1011.12 1011.67 1012.24 1012.80 1013.34 1013.82 1014.25 1014.61 1014.93 1015.22 1015.51 1015.80 1016.08 1016.36 1016.60 1016.80 1016.95 1017.04 1017.09 1017.13 1017.17 1017.24 1017.36 1017.53 1017.75 1017.99 1018.24 1018.48 1018.70 1018.90 1019.09 1019.27 1019.44
1006.02 1006.53 1007.07 1007.60 1008.10 1008.56 1008.99 1009.42 1009.87 1010.38 1010.94 1011.53 1012.15 1012.76 1013.33 1013.85 1014.30 1014.70 1015.06 1015.39 1015.71 1016.02 1016.32 1016.59 1016.83 1017.01 1017.13 1017.21 1017.25 1017.29 1017.35 1017.45 1017.59 1017.79 1018.02 1018.27 1018.52 1018.77 1018.99 1019.20 1019.39 1019.58 1019.76
1006.15 1006.57 1007.01 1007.44 1007.84 1008.23 1008.63 1009.06 1009.54 1010.09 1010.69 1011.33 1011.98 1012.62 1013.21 1013.74 1014.22 1014.66 1015.05 1015.43 1015.79 1016.14 1016.46 1016.75 1016.98 1017.16 1017.27 1017.34 1017.39 1017.44 1017.51 1017.62 1017.79 1018.00 1018.25 1018.51 1018.77 1019.01 1019.24 1019.45 1019.65 1019.85 1020.04
1006.04 1006.37 1006.71 1007.06 1007.41 1007.78 1008.18 1008.64 1009.17 1009.76 1010.41 1011.08 1011.75 1012.39 1012.98 1013.52 1014.01 1014.47 1014.91 1015.33 1015.74 1016.14 1016.50 1016.82 1017.08 1017.26 1017.39 1017.47 1017.53 1017.59 1017.68 1017.81 1018.00 1018.22 1018.47 1018.73 1018.99 1019.23 1019.46 1019.68 1019.88 1020.08 1020.27
1005.72 1005.96 1006.22 1006.51 1006.84 1007.23 1007.67 1008.20 1008.79 1009.44 1010.13 1010.82 1011.49 1012.11 1012.69 1013.22 1013.72 1014.19 1014.66 1015.14 1015.60 1016.06 1016.47 1016.84 1017.13 1017.36 1017.51 1017.62 1017.71 1017.80 1017.91 1018.06 1018.25 1018.48 1018.73 1018.98 1019.23 1019.47 1019.69 1019.90 1020.11 1020.31 1020.50
1005.24 1005.39 1005.59 1005.87 1006.21 1006.65 1007.17 1007.78 1008.45 1009.17 1009.89 1010.59 1011.25 1011.85 1012.40 1012.91 1013.40 1013.89 1014.39 1014.91 1015.43 1015.94 1016.42 1016.84 1017.19 1017.46 1017.67 1017.82 1017.95 1018.08 1018.22 1018.39 1018.59 1018.81 1019.05 1019.29 1019.52 1019.74 1019.95 1020.16 1020.35 1020.55 1020.73
1004.69 1004.76 1004.92 1005.20 1005.59 1006.10 1006.72 1007.43 1008.20 1008.98 1009.73 1010.44 1011.08 1011.65 1012.17 1012.66 1013.14 1013.64 1014.17 1014.72 1015.29 1015.85 1016.39 1016.86 1017.27 1017.60 1017.86 1018.07 1018.26 1018.43 1018.60 1018.79 1019.00 1019.22 1019.44 1019.66 1019.87 1020.07 1020.26 1020.45 1020.63 1020.81 1020.98
1004.15 1004.15 1004.29 1004.58 1005.04 1005.64 1006.37 1007.18 1008.03 1008.87 1009.66 1010.37 1011.00 1011.56 1012.06 1012.53 1013.01 1013.52 1014.07 1014.66 1015.26 1015.86 1016.43 1016.94 1017.39 1017.78 1018.09 1018.36 1018.60 1018.82 1019.03 1019.24 1019.45 1019.66 1019.86 1020.05 1020.24 1020.41 1020.59 1020.76 1020.93 1021.09 1021.24
1003.67 1003.62 1003.75 1004.07 1004.58 1005.27 1006.09 1007.00 1007.93 1008.82 1009.65 1010.38 1011.01 1011.56 1012.06 1012.55 1013.04 1013.57 1014.14 1014.75 1015.37 1015.98 1016.56 1017.10 1017.57 1017.98 1018.34 1018.65 1018.93 1019.19 1019.44 1019.67 1019.88 1020.08 1020.26 1020.43 1020.59 1020.74 1020.90 1021.05 1021.21 1021.36 1021.49
1003.27 1003.19 1003.31 1003.66 1004.23 1004.99 1005.89 1006.87 1007.86 1008.80 1009.66 1010.41 1011.06 1011.64 1012.17 1012.68 1013.21 1013.77 1014.37 1014.99 1015.61 1016.22 1016.79 1017.31 1017.78 1018.19 1018.56 1018.90 1019.21 1019.50 1019.77 1020.01 1020.22 1020.41 1020.57 1020.72 1020.85 1020.99 1021.13 1021.28 1021.43 1021.57 1021.68
1002.95 1002.85 1002.97 1003.35 1003.96 1004.77 1005.72 1006.75 1007.78 1008.75 1009.64 1010.42 1011.11 1011.73 1012.31 1012.89 1013.48 1014.09 1014.72 1015.35 1015.96 1016.54 1017.08 1017.56 1017.99 1018.38 1018.74 1019.08 1019.40 1019.70 1019.98 1020.22 1020.42 1020.59 1020.74 1020.86 1020.98 1021.11 1021.24 1021.39 1021.54 1021.67 1021.77
1002.65 1002.56 1002.70 1003.10 1003.74 1004.58 1005.56 1006.60 1007.64 1008.64 1009.55 1010.37 1011.10 1011.79 1012.45 1013.10 1013.76 1014.44 1015.10 1015.75 1016.35 1016.90 1017.38 1017.80 1018.18 1018.53 1018.86 1019.18 1019.49 1019.78 1020.05 1020.28 1020.47 1020.62 1020.73 1020.84 1020.94 1021.06 1021.20 1021.35 1021.50 1021.64 1021.74
1002.35 1002.29 1002.46 1002.88 1003.54 1004.39 1005.36 1006.40 1007.44 1008.44 1009.36 1010.21 1011.00 1011.76 1012.50 1013.25 1014.00 1014.74 1015.46 1016.12 1016.71 1017.22 1017.65 1018.01 1018.32 1018.62 1018.90 1019.19 1019.47 1019.75 1019.99 1020.20 1020.37 1020.49 1020.58 1020.66 1020.75 1020.86 1021.00 1021.16 1021.33 1021.48 1021.60
1002.00 1001.99 1002.20 1002.65 1003.32 1004.17 1005.13 1006.16 1007.18 1008.16 1009.09 1009.96 1010.80 1011.62 1012.45 1013.28 1014.12 1014.93 1015.69 1016.38 1016.96 1017.44 1017.83 1018.13 1018.39 1018.63 1018.87 1019.12 1019.38 1019.63 1019.86 1020.04 1020.18 1020.27 1020.33 1020.38 1020.45 1020.55 1020.69 1020.86 1021.05 1021.22 1021.35
1001.58 1001.64 1001.90 1002.39 1003.08 1003.92 1004.88 1005.88 1006.87 1007.83 1008.75 1009.63 1010.50 1011.37 1012.26 1013.17 1014.08 1014.95 1015.76 1016.47 1017.06 1017.53 1017.89 1018.16 1018.38 1018.58 1018.79 1019.01 1019.25 1019.48 1019.69 1019.85 1019.96 1020.02 1020.04 1020.07 1020.11 1020.20 1020.33 1020.51 1020.71 1020.91 1021.07
1001.07 1001.21 1001.53 1002.07 1002.79 1003.65 1004.59 1005.57 1006.55 1007.49 1008.39 1009.26 1010.14 1011.04 1011.97 1012.92 1013.88 1014.81 1015.65 1016.39 1017.00 1017.46 1017.81 1018.07 1018.27 1018.46 1018.66 1018.88 1019.11 1019.34 1019.54 1019.68 1019.77 1019.81 1019.80 1019.80 1019.81 1019.87 1019.99 1020.17 1020.38 1020.59 1020.78
1000.50 1000.70 1001.09 1001.68 1002.44 1003.32 1004.29 1005.27 1006.23 1007.15 1008.03 1008.90 1009.76 1010.66 1011.60 1012.57 1013.55 1014.51 1015.38 1016.14 1016.76 1017.25 1017.61 1017.88 1018.09 1018.29 1018.51 1018.74 1018.99 1019.23 1019.43 1019.58 1019.67 1019.68 1019.66 1019.62 1019.60 1019.63 1019.73 1019.89 1020.10 1020.33 1020.54
Thickness
5760 5759 5755 5754 5752 5751 5750 5749 5748 5747 5745 5744 5743 5742 5741 5739 5738 5737 5737 5736 5735 5734 5734 5733 5732 5731 5730 5730 5728 5727 5726 5725 5724 5723 5722 5721 5720 5719 5717 5717 5716 5715 5713
5762 5758 5752 5751 5750 5749 5748 5746 5745 5744 5743 5741 5740 5739 5738 5737 5736 5735 5734 5733 5732 5732 5731 5730 5729 5728 5727 5726 5725 5724 5722 5721 5720 5719 5718 5717 5716 5714 5713 5712 5711 5710 5708
5759 5756 5750 5749 5747 5746 5745 5743 5742 5741 5740 5738 5737 5736 5735 5734 5733 5732 5731 5730 5729 5728 5727 5726 5725 5724 5723 5722 5721 5720 5718 5717 5716 5716 5716 5716 5713 5710 5709 5707 5706 5705 5704
5756 5753 5749 5746 5744 5743 5741 5740 5739 5738 5737 5735 5734 5733 5732 5731 5730 5729 5728 5727 5726 5724 5723 5722 5721 5720 5719 5718 5717 5715 5714 5713 5712 5713 5714 5712 5710 5706 5704 5703 5702 5700 5699
5752 5749 5746 5742 5741 5739 5738 5737 5735 5734 5733 5732 5731 5730 5729 5728 5727 5726 5724 5723 5722 5721 5720 5718 5717 5716 5715 5714 5713 5711 5710 5709 5709 5710 5709 5707 5705 5702 5700 5699 5697 5696 5695
5748 5745 5741 5738 5737 5735 5734 5733 5731 5730 5729 5728 5727 5726 5725 5724 5723 5722 5721 5719 5718 5717 5716 5715 5713 5712 5711 5710 5709 5707 5706 5705 5706 5706 5704 5703 5701 5698 5696 5694 5693 5691 5690
5743 5741 5737 5734 5733 5731 5730 5729 5727 5726 5725 5724 5723 5722 5721 5720 5719 5718 5717 5715 5714 5713 5712 5711 5709 5708 5707 5706 5704 5703 5702 5701 5702 5701 5700 5698 5695 5693 5691 5690 5688 5687 5685
5738 5736 5732 5729 5728 5727 5726 5724 5723 5722 5721 5719 5719 5718 5717 5716 5715 5713 5712 5711 5710 5709 5708 5707 5705 5704 5703 5701 5700 5698 5697 5697 5698 5697 5695 5693 5690 5688 5686 5685 5684 5682 5681
5731 5730 5728 5725 5723 5721 5720 5719 5719 5717 5716 5715 5714 5713 5712 5710 5710 5708 5708 5706 5705 5704 5703 5702 5701 5699 5698 5697 5695 5694 5693 5693 5694 5693 5690 5688 5685 5683 5682 5680 5679 5677 5676
5725 5724 5723 5721 5719 5718 5716 5714 5713 5712 5711 5710 5709 5707 5706 5705 5704 5703 5702 5701 5700 5699 5698 5697 5696 5695 5693 5692 5691 5690 5689 5689 5689 5688 5686 5682 5680 5678 5677 5675 5674 5672 5671
5717 5718 5717 5716 5715 5714 5712 5710 5708 5707 5705 5704 5703 5702 5701 5701 5700 5698 5697 5696 5695 5694 5693 5692 5691 5689 5688 5687 5686 5685 5685 5685 5684 5682 5680 5676 5675 5673 5672 5670 5669 5668 5666
5710 5711 5712 5711 5710 5709 5708 5705 5704 5703 5701 5700 5699 5697 5697 5696 5695 5693 5690 5690 5689 5688 5688 5687 5686 5685 5684 5684 5682 5681 5681 5680 5679 5677 5674 5671 5669 5668 5667 5665 5664 5663 5661
5705 5705 5706 5706 5705 5704 5703 5701 5700 5698 5697 5696 5694 5693 5691 5690 5689 5688 5686 5685 5684 5683 5683 5682 5681 5681 5680 5679 5678 5677 5676 5675 5673 5671 5668 5665 5664 5663 5661 5660 5659 5657 5656
5698 5698 5699 5699 5698 5698 5697 5696 5695 5693 5692 5691 5689 5688 5687 5685 5684 5683 5682 5681 5679 5679 5678 5677 5677 5676 5675 5674 5673 5672 5670 5669 5667 5665 5661 5659 5658 5657 5656 5654 5653 5651 5650
5690 5691 5692 5692 5692 5691 5690 5689 5688 5688 5687 5685 5683 5682 5681 5680 5679 5678 5677 5675 5674 5673 5672 5672 5671 5671 5669 5668 5667 5666 5665 5663 5661 5659 5656 5653 5651 5650 5649 5648 5646 5645 5643
5682 5684 5685 5685 5685 5685 5684 5683 5682 5681 5680 5679 5677 5676 5675 5674 5673 5672 5671 5669 5668 5667 5666 5666 5665 5664 5663 5662 5660 5659 5658 5656 5655 5652 5650 5647 5645 5643 5642 5641 5639 5638 5636
5675 5676 5677 5677 5677 5677 5676 5675 5674 5673 5673 5672 5670 5669 5668 5667 5666 5665 5664 5663 5662 5660 5660 5659 5658 5657 5656 5655 5654 5652 5651 5650 5648 5646 5644 5642 5640 5637 5635 5633 5632 5630 5629
5668 5668 5669 5670 5669 5668 5668 5667 5666 5665 5665 5664 5663 5662 5661 5660 5659 5658 5658 5657 5655 5654 5653 5653 5652 5651 5650 5649 5648 5646 5644 5642 5641 5639 5637 5635 5633 5631 5629 5626 5624 5623 5621
5659 5660 5661 5661 5661 5660 5659 5659 5658 5657 5657 5655 5654 5654 5653 5652 5651 5651 5650 5649 5648 5647 5646 5645 5645 5644 5642 5640 5639 5638 5637 5635 5633 5631 5630 5628 5625 5623 5622 5619 5617 5615 5613
5650 5652 5652 5652 5652 5652 5650 5650 5649 5648 5647 5646 5646 5645 5645 5644 5643 5642 5641 5641 5640 5640 5639 5638 5636 5635 5634 5632 5631 5629 5628 5627 5625 5624 5623 5620 5618 5616 5614 5613 5611 5609 5606
5641 5642 5644 5643 5643 5643 5642 5641 5641 5640 5639 5638 5637 5636 5636 5636 5635 5634 5633 5632 5632 5632 5631 5630 5629 5627 5625 5623 5623 5622 5621 5619 5618 5616 5615 5613 5611 5609 5607 5605 5603 5601 5599
5633 5634 5635 5636 5635 5635 5634 5634 5633 5630 5629 5628 5628 5627 5627 5627 5627 5626 5625 5624 5623 5623 5622 5620 5620 5619 5616 5614 5615 5615 5615 5615 5612 5609 5607 5605 5604 5601 5599 5597 5595 5593 5591
5623 5625 5626 5626 5627 5626 5626 5624 5621 5620 5619 5618 5618 5618 5618 5618 5618 5618 5617 5616 5615 5614 5613 5611 5610 5610 5608 5606 5605 5606 5607 5610 5607 5604 5601 5598 5596 5594 5592 5590 5587 5585 5583
5612 5614 5616 5617 5617 5616 5616 5615 5615 5615 5614 5613 5612 5610 5609 5609 5609 5608 5608 5607 5605 5605 5604 5602 5601 5600 5599 5598 5596 5594 5595 5595 5595 5597 5595 5592 5589 5587 5585 5582 5579 5577 5574
5600 5603 5605 5606 5607 5606 5607 5606 5607 5606 5605 5603 5602 5601 5600 5599 5599 5599 5598 5597 5596 5595 5594 5593 5591 5590 5590 5589 5588 5587 5586 5584 5584 5585 5587 5585 5582 5580 5577 5575 5572 5569 5566
5589 5591 5594 5596 5596 5597 5597 5597 5597 5596 5595 5593 5592 5591 5591 5590 5589 5588 5588 5587 5587 5586 5584 5583 5581 5581 5580 5579 5578 5577 5576 5576 5575 5574 5576 5576 5575 5573 5570 5567 5564 5561 5558